Dallesport, WA

4:11 PM PST on February 19, 2017 (GMT -0800)
Columbia Gorge Regional-The Dalles

Weather History for KDLS - February, 2013

Change the Weather History Date:

Saturday, February 9, 2013

  Actual Average Record
Temperature  
Mean Temperature 40 °F -  
Max Temperature 50 °F 44 °F 68 °F (1951)
Min Temperature 30 °F 31 °F 9 °F (1989)
Degree Days  
Heating Degree Days 25    
Moisture  
Dew Point 32 °F    
Average Humidity 68    
Maximum Humidity 82    
Minimum Humidity 54    
Precipitation  
Precipitation 0.00 in - - ()
Sea Level Pressure  
Sea Level Pressure 30.18 in    
Wind  
Wind Speed 10 mph (NW)    
Max Wind Speed 17 mph    
Max Gust Speed 28 mph    
Visibility 10 miles    
Events      
Averages and records for this station are not official NWS values.
T = Trace of Precipitation, MM = Missing Value Source: NWS Daily Summary

Daily Weather History Graph

Daily Weather History Graph

Search for Another Location

Airport or City:

Trip Planner

Search our weather history database for the weather conditions in past years. The results will help you decide how hot, cold, wet, or windy it might be!

Date:

Astronomy

Feb. 09, 2013 Rise Set
Actual Time 7:15 AM PST 5:23 PM PST
Civil Twilight 6:44 AM PST 5:54 PM PST
Nautical Twilight 6:09 AM PST 6:29 PM PST
Astronomical Twilight 5:34 AM PST 7:03 PM PST
Moon 6:29 AM PST (2/9) 5:14 PM PST (2/9)
Length of Visible Light 11h 10m
Length of Day
10h 08m
Waning Crescent, 0% of the Moon is Illuminated
Feb 9
Waning Crescent
Feb 9
New
Feb 17
First Quarter
Feb 25
Full
Mar 4
Last Quarter

Hourly Weather History & Observations

Time (PST) Temp. Windchill Dew Point Humidity Pressure Visibility Wind Dir Wind Speed Gust Speed Precip Events Conditions
12:53 AM 37.9 °F 30.0 °F 30.9 °F 76% 30.19 in 10.0 mi NW 12.7 mph - N/A   Clear
1:53 AM 36.0 °F 31.1 °F 28.9 °F 76% 30.19 in 10.0 mi Variable 5.8 mph - N/A   Clear
2:53 AM 37.9 °F 32.7 °F 30.0 °F 73% 30.19 in 10.0 mi West 6.9 mph - N/A   Clear
3:53 AM 34.0 °F 29.8 °F 28.0 °F 79% 30.19 in 10.0 mi Variable 4.6 mph - N/A   Clear
4:53 AM 30.9 °F - 26.1 °F 82% 30.19 in 10.0 mi Calm Calm - N/A   Clear
5:53 AM 33.1 °F 27.7 °F 25.0 °F 72% 30.18 in 10.0 mi SE 5.8 mph - N/A   Clear
6:53 AM 34.0 °F - 27.0 °F 75% 30.18 in 10.0 mi Calm Calm - N/A   Clear
7:53 AM 37.0 °F - 28.0 °F 70% 30.19 in 10.0 mi Calm Calm - N/A   Clear
8:53 AM 41.0 °F 39.0 °F 30.9 °F 67% 30.19 in 10.0 mi Variable 3.5 mph - N/A   Clear
9:53 AM 45.0 °F 38.2 °F 33.1 °F 63% 30.18 in 10.0 mi NW 15.0 mph 19.6 mph N/A   Clear
10:53 AM 46.9 °F - 33.1 °F 59% 30.19 in 10.0 mi NW 17.3 mph 27.6 mph N/A   Clear
11:53 AM 48.9 °F - 33.1 °F 54% 30.17 in 10.0 mi NNW 15.0 mph 23.0 mph N/A   Clear
12:53 PM 48.9 °F - 33.1 °F 54% 30.15 in 10.0 mi NW 17.3 mph - N/A   Clear
1:53 PM 50.0 °F - 34.0 °F 54% 30.14 in 10.0 mi NNW 10.4 mph 24.2 mph N/A   Clear
2:53 PM 48.0 °F - 34.0 °F 58% 30.14 in 10.0 mi NW 15.0 mph - N/A   Clear
3:53 PM 46.0 °F 39.0 °F 34.0 °F 63% 30.15 in 10.0 mi NNW 17.3 mph 27.6 mph N/A   Clear
4:53 PM 46.0 °F 39.3 °F 34.0 °F 63% 30.15 in 10.0 mi NW 16.1 mph - N/A   Clear
5:53 PM 44.1 °F 37.7 °F 34.0 °F 68% 30.16 in 10.0 mi NNW 12.7 mph - N/A   Clear
6:53 PM 45.0 °F 38.5 °F 34.0 °F 65% 30.17 in 10.0 mi NW 13.8 mph 25.3 mph N/A   Clear
7:53 PM 44.1 °F 37.1 °F 34.0 °F 68% 30.18 in 10.0 mi NW 15.0 mph 19.6 mph N/A   Clear
8:53 PM 44.1 °F 39.0 °F 34.0 °F 68% 30.21 in 10.0 mi NNW 9.2 mph - N/A   Clear
9:53 PM 43.0 °F 36.4 °F 35.1 °F 74% 30.23 in 10.0 mi NW 12.7 mph - N/A   Clear
10:53 PM 43.0 °F 35.7 °F 35.1 °F 74% 30.24 in 10.0 mi NW 15.0 mph - N/A   Clear
11:53 PM 43.0 °F 35.7 °F 35.1 °F 74% 30.26 in 10.0 mi NW 15.0 mph 25.3 mph N/A   Clear